[TLELIST] Archives

 

[list_settings.list_name] Current TLEs

September 30th 2013 PDT

HST 1 20580U 90037B 13272.53752049 .00001674 00000-0 10627-3 0 3423 2 20580 028.4704 308.5855 0003401 027.0022 126.5639 15.03957993 85429 ISS (ZARYA) 1 25544U 98067A 13273.39676382 .00005759 00000-0 10681-3 0 7072 2 25544 051.6489 306.9561 0003269 095.3603 040.4428 15.50533924851026 CXO 1 25867U 99040B 13273.71162209 .00000372 00000-0 00000+0 0 9568 2 25867 076.0094 333.5504 8451454 276.6239 000.3749 00.37798635 10939 ____________________________________________________________________ These 2-Line ...Continue Reading

[list_settings.list_name] Current TLEs

September 29th 2013 PDT

HST 1 20580U 90037B 13271.53530064 .00001769 00000-0 11298-3 0 3412 2 20580 028.4705 315.1584 0003336 017.6117 098.9963 15.03954629 85278 ISS (ZARYA) 1 25544U 98067A 13272.49832432 .00005051 00000-0 94719-4 0 6992 2 25544 051.6494 311.4116 0003277 094.4181 063.0664 15.50520245850887 CXO 1 25867U 99040B 13273.71162209 .00000372 00000-0 00000+0 0 9568 2 25867 076.0094 333.5504 8451454 276.6239 000.3749 00.37798635 10939 ____________________________________________________________________ These 2-Line ...Continue Reading

[list_settings.list_name] Current TLEs

September 28th 2013 PDT

HST 1 20580U 90037B 13270.47697433 .00001680 00000-0 10671-3 0 3403 2 20580 028.4706 322.0994 0003304 007.0132 128.2690 15.03952119 85115 ISS (ZARYA) 1 25544U 98067A 13271.20004951 .00005408 00000-0 10089-3 0 6912 2 25544 051.6496 317.8465 0003026 086.9398 018.9895 15.50507164850682 CXO 1 25867U 99040B 13273.71162209 .00000372 00000-0 00000+0 0 9568 2 25867 076.0094 333.5504 8451454 276.6239 000.3749 00.37798635 10939 ____________________________________________________________________ These 2-Line ...Continue Reading

[list_settings.list_name] Current TLEs

September 27th 2013 PDT

HST 1 20580U 90037B 13268.61679302 .00001520 00000-0 95413-4 0 3390 2 20580 028.4707 334.2991 0003192 347.3838 136.6081 15.03947539 84831 ISS (ZARYA) 1 25544U 98067A 13270.23384176 .00004352 00000-0 82768-4 0 6858 2 25544 051.6482 322.6336 0003064 090.4526 018.7336 15.50494010850530 CXO 1 25867U 99040B 13271.06693731 .00000324 00000-0 00000+0 0 9559 2 25867 075.9907 333.6833 8454505 276.6684 000.3032 00.37799533 10922 ____________________________________________________________________ These 2-Line ...Continue Reading

[list_settings.list_name] Current TLEs

September 26th 2013 PDT

HST 1 20580U 90037B 13268.61679302 .00001520 00000-0 95413-4 0 3390 2 20580 028.4707 334.2991 0003192 347.3838 136.6081 15.03947539 84831 ISS (ZARYA) 1 25544U 98067A 13269.51926882 .00024260 00000-0 42435-3 0 6792 2 25544 051.6467 326.1740 0003397 087.7556 350.2165 15.50488396850424 CXO 1 25867U 99040B 13271.06693731 .00000324 00000-0 00000+0 0 9559 2 25867 075.9907 333.6833 8454505 276.6684 000.3032 00.37799533 10922 ____________________________________________________________________ These 2-Line ...Continue Reading

[list_settings.list_name] Current TLEs

September 25th 2013 PDT

HST 1 20580U 90037B 13267.48579015 .00001491 00000-0 93370-4 0 3380 2 20580 028.4709 341.7167 0003161 335.5284 132.9111 15.03943338 84668 ISS (ZARYA) 1 25544U 98067A 13268.36161734 .00008563 00000-0 15522-3 0 6718 2 25544 051.6507 331.9147 0003240 082.5496 009.4358 15.50480741850240 CXO 1 25867U 99040B 13271.06693731 .00000324 00000-0 00000+0 0 9559 2 25867 075.9907 333.6833 8454505 276.6684 000.3032 00.37799533 10922 ____________________________________________________________________ These 2-Line ...Continue Reading

[list_settings.list_name] Current TLEs

September 24th 2013 PDT

HST 1 20580U 90037B 13265.69797480 .00001366 00000-0 84528-4 0 3374 2 20580 028.4710 353.4416 0003085 316.6558 173.1324 15.03937780 84393 ISS (ZARYA) 1 25544U 98067A 13267.39220317 .00008652 00000-0 15685-3 0 6644 2 25544 051.6506 336.7214 0003199 079.4170 358.0161 15.50463526850094 CXO 1 25867U 99040B 13268.42218902 .00000190 00000-0 00000+0 0 9548 2 25867 075.9700 333.8475 8457764 276.6937 000.2334 00.37802401 10910 ____________________________________________________________________ These 2-Line ...Continue Reading

[list_settings.list_name] Current TLEs

September 23rd 2013 PDT

HST 1 20580U 90037B 13265.69797480 .00001366 00000-0 84528-4 0 3374 2 20580 028.4710 353.4416 0003085 316.6558 173.1324 15.03937780 84393 ISS (ZARYA) 1 25544U 98067A 13266.36888580 .00008645 00000-0 15683-3 0 6574 2 25544 051.6507 341.7924 0003145 075.3715 046.5034 15.50444381849937 CXO 1 25867U 99040B 13268.42218902 .00000190 00000-0 00000+0 0 9548 2 25867 075.9700 333.8475 8457764 276.6937 000.2334 00.37802401 10910 ____________________________________________________________________ These 2-Line ...Continue Reading

[list_settings.list_name] Current TLEs

September 22nd 2013 PDT

HST 1 20580U 90037B 13264.49715274 .00001353 00000-0 83567-4 0 3369 2 20580 028.4712 001.3169 0003029 304.1162 151.3976 15.03933978 84206 ISS (ZARYA) 1 25544U 98067A 13265.20238064 .00016360 00000-0 28959-3 0 6496 2 25544 051.6515 347.5776 0003291 071.1751 015.4881 15.50433690849757 CXO 1 25867U 99040B 13265.77999238 .00000031 00000-0 00000+0 0 9534 2 25867 075.9613 334.0002 8459582 276.7221 000.5064 00.37802349 10902 ____________________________________________________________________ These 2-Line ...Continue Reading

[list_settings.list_name] Current TLEs

September 21st 2013 PDT

HST 1 20580U 90037B 13262.77895713 .00001143 00000-0 68758-4 0 3356 2 20580 028.4712 012.5848 0002958 284.7004 209.8934 15.03928939 83957 ISS (ZARYA) 1 25544U 98067A 13264.42713035 -.00033785 00000-0 -57859-3 0 6432 2 25544 051.6510 351.4215 0003289 070.2545 006.4709 15.50380774849632 CXO 1 25867U 99040B 13265.77999238 .00000031 00000-0 00000+0 0 9534 2 25867 075.9613 334.0002 8459582 276.7221 000.5064 00.37802349 10902 ____________________________________________________________________ These 2-Line ...Continue Reading
  • This mailing list is a public mailing list - anyone may join or leave, at any time.
  • This mailing list is announce-only.

International Space Station (ISS) / Hubble Space Telescope (HST) / Chandra X-Ray Observatory Orbital Data via EMAIL

Privacy Policy:

Private list